RYR86DZ EBCI-LFMU

Flight info

Callsign RYR86DZ
Flight time 1h 22m
Altitude 31000
Route CIV N872 LESDO DCT KOVIN DCT DUCRA UM728 RESMI UN857 DISAK DCT DIRMO DCT ETAMO DCT ADEKA DCT MOKDI DCT MEN J27 AFRIC
Aircraft B738/M-SDE2E3FGHIRWXY/LB1

Departure

Time 2026-04-26 13:57
Airport Brussels South Charleroi Airport (EBCI)

Arrival

Time 2026-04-26 15:19
Airport Béziers Vias airport (LFMU)
Time Latitude Longitude Altitude Speed Heading
2026-04-26 13:34 50.46789 4.46819 583 ft 0 kts 335°
2026-04-26 13:44 50.46787 4.46820 584 ft 2 kts 335°
2026-04-26 13:44 50.46772 4.46831 585 ft 2 kts 335°
2026-04-26 13:44 50.46757 4.46842 588 ft 2 kts 327°
2026-04-26 13:45 50.46747 4.46861 585 ft 2 kts 277°
2026-04-26 13:45 50.46748 4.46887 584 ft 2 kts 253°
2026-04-26 13:45 50.46750 4.46897 584 ft 0 kts 250°
2026-04-26 13:47 50.46750 4.46898 584 ft 0 kts 249°
2026-04-26 13:49 50.46750 4.46897 584 ft 1 kts 249°
2026-04-26 13:49 50.46743 4.46871 584 ft 5 kts 245°
2026-04-26 13:50 50.46720 4.46800 584 ft 10 kts 234°
2026-04-26 13:50 50.46658 4.46789 590 ft 10 kts 161°
2026-04-26 13:50 50.46598 4.46760 586 ft 10 kts 233°
2026-04-26 13:50 50.46568 4.46667 591 ft 10 kts 244°
2026-04-26 13:51 50.46534 4.46555 588 ft 13 kts 245°
2026-04-26 13:51 50.46491 4.46410 587 ft 16 kts 246°
2026-04-26 13:51 50.46441 4.46234 591 ft 19 kts 246°
2026-04-26 13:51 50.46389 4.46051 597 ft 18 kts 246°
2026-04-26 13:52 50.46340 4.45875 606 ft 17 kts 246°
2026-04-26 13:52 50.46291 4.45705 624 ft 17 kts 245°
2026-04-26 13:52 50.46239 4.45532 622 ft 19 kts 245°
2026-04-26 13:52 50.46178 4.45324 630 ft 22 kts 245°
2026-04-26 13:53 50.46115 4.45108 635 ft 21 kts 245°
2026-04-26 13:53 50.46059 4.44914 635 ft 16 kts 245°
2026-04-26 13:53 50.46007 4.44786 631 ft 12 kts 213°
2026-04-26 13:53 50.45987 4.44773 631 ft 0 kts 195°
2026-04-26 13:54 50.45983 4.44772 629 ft 2 kts 194°
2026-04-26 13:55 50.45919 4.44796 631 ft 8 kts 155°
2026-04-26 13:55 50.45891 4.44837 634 ft 9 kts 123°
2026-04-26 13:55 50.45893 4.44964 635 ft 0 kts 63°
2026-04-26 13:56 50.45893 4.44965 635 ft 1 kts 63°
2026-04-26 13:56 50.45907 4.45007 628 ft 10 kts 64°
2026-04-26 13:56 50.46039 4.45454 626 ft 84 kts 65°
2026-04-26 13:57 50.46375 4.46626 627 ft 149 kts 65°
2026-04-26 13:57 50.46781 4.48087 1402 ft 144 kts 64°
2026-04-26 13:57 50.47413 4.49412 2009 ft 165 kts 42°
2026-04-26 13:57 50.48356 4.50703 2487 ft 194 kts 40°
2026-04-26 13:58 50.49332 4.52342 2845 ft 221 kts 52°
2026-04-26 13:58 50.50339 4.54292 3245 ft 243 kts 49°
2026-04-26 13:58 50.51462 4.56455 3814 ft 262 kts 51°
2026-04-26 13:58 50.52593 4.58694 4891 ft 261 kts 49°
2026-04-26 13:59 50.54046 4.60412 5777 ft 267 kts 20°
2026-04-26 13:59 50.55880 4.60812 6727 ft 270 kts 352°
2026-04-26 13:59 50.57645 4.59830 7631 ft 272 kts 326°
2026-04-26 14:00 50.59439 4.51709 10388 ft 281 kts 268°
2026-04-26 14:00 50.59343 4.48548 10814 ft 302 kts 267°
2026-04-26 14:00 50.59265 4.46297 10981 ft 318 kts 267°
2026-04-26 14:01 50.59100 4.41567 11768 ft 332 kts 268°
2026-04-26 14:01 50.58982 4.37914 12769 ft 330 kts 268°
2026-04-26 14:01 50.58873 4.34322 13540 ft 337 kts 269°
2026-04-26 14:01 50.58766 4.30572 14352 ft 340 kts 269°
2026-04-26 14:02 50.58661 4.26829 15125 ft 343 kts 269°
2026-04-26 14:02 50.58556 4.23066 15887 ft 346 kts 269°
2026-04-26 14:02 50.58451 4.19260 16646 ft 349 kts 269°
2026-04-26 14:02 50.58346 4.15483 17386 ft 352 kts 269°
2026-04-26 14:03 50.58235 4.11563 18147 ft 355 kts 269°
2026-04-26 14:03 50.58126 4.07710 18830 ft 359 kts 269°
2026-04-26 14:03 50.58012 4.03776 19469 ft 362 kts 269°
2026-04-26 14:03 50.57897 3.99810 20087 ft 365 kts 269°
2026-04-26 14:04 50.57779 3.95806 20704 ft 368 kts 269°
2026-04-26 14:04 50.57659 3.91773 21306 ft 371 kts 269°
2026-04-26 14:04 50.57294 3.87728 21876 ft 379 kts 253°
2026-04-26 14:04 50.56038 3.84061 22481 ft 386 kts 233°
2026-04-26 14:05 50.54085 3.81124 23088 ft 394 kts 216°
2026-04-26 14:05 50.51622 3.79142 23670 ft 401 kts 206°
2026-04-26 14:05 50.49050 3.77424 24155 ft 405 kts 205°
2026-04-26 14:05 50.46440 3.75726 24593 ft 409 kts 205°
2026-04-26 14:06 50.43803 3.73994 25044 ft 412 kts 206°
2026-04-26 14:06 50.41161 3.72227 25496 ft 414 kts 206°
2026-04-26 14:06 50.38503 3.70428 25949 ft 417 kts 206°
2026-04-26 14:06 50.35832 3.68611 26376 ft 420 kts 207°
2026-04-26 14:07 50.33143 3.66786 26881 ft 421 kts 207°
2026-04-26 14:07 50.30448 3.64960 27307 ft 424 kts 207°
2026-04-26 14:07 50.27728 3.63121 27694 ft 428 kts 207°
2026-04-26 14:07 50.24986 3.61269 28095 ft 431 kts 207°
2026-04-26 14:08 50.22237 3.59413 28513 ft 433 kts 207°
2026-04-26 14:08 50.19475 3.57554 29056 ft 432 kts 207°
2026-04-26 14:08 50.16720 3.55704 29670 ft 429 kts 207°
2026-04-26 14:08 50.13980 3.53869 30228 ft 427 kts 207°
2026-04-26 14:09 50.11246 3.52041 30655 ft 428 kts 207°
2026-04-26 14:09 50.08510 3.50211 31067 ft 428 kts 207°
2026-04-26 14:09 50.05787 3.48393 31529 ft 426 kts 207°
2026-04-26 14:09 50.03070 3.46581 31990 ft 424 kts 207°
2026-04-26 14:10 50.00358 3.44774 32405 ft 424 kts 208°
2026-04-26 14:10 49.97648 3.42970 32804 ft 424 kts 208°
2026-04-26 14:10 49.94939 3.41168 33213 ft 423 kts 208°
2026-04-26 14:11 49.86721 3.35715 33248 ft 427 kts 208°
2026-04-26 14:11 49.81316 3.32146 33256 ft 421 kts 208°
2026-04-26 14:12 49.76828 3.29176 33269 ft 423 kts 208°
2026-04-26 14:12 49.71413 3.25594 33258 ft 425 kts 208°
2026-04-26 14:13 49.63239 3.20204 33259 ft 426 kts 208°
2026-04-26 14:14 49.57740 3.16590 33252 ft 427 kts 207°
2026-04-26 14:14 49.52310 3.13029 33244 ft 427 kts 208°
2026-04-26 14:15 49.46944 3.09127 33233 ft 418 kts 217°
2026-04-26 14:15 49.42132 3.04204 33258 ft 414 kts 219°
2026-04-26 14:16 49.37368 2.99254 33241 ft 413 kts 219°
2026-04-26 14:16 49.32595 2.94376 33242 ft 412 kts 218°
2026-04-26 14:17 49.27843 2.89569 33263 ft 412 kts 218°
2026-04-26 14:17 49.23013 2.84705 33254 ft 413 kts 218°
2026-04-26 14:18 49.18232 2.79902 33244 ft 415 kts 218°
2026-04-26 14:18 49.13369 2.75026 33243 ft 416 kts 218°
2026-04-26 14:19 49.08528 2.70184 33244 ft 417 kts 218°
2026-04-26 14:19 49.03660 2.65327 33222 ft 419 kts 218°
2026-04-26 14:20 48.98784 2.60471 33232 ft 419 kts 218°
2026-04-26 14:20 48.93903 2.55625 33232 ft 418 kts 218°
2026-04-26 14:21 48.89033 2.50798 33243 ft 418 kts 218°
2026-04-26 14:21 48.84168 2.45984 33231 ft 417 kts 218°
2026-04-26 14:22 48.79304 2.41182 33233 ft 416 kts 218°
2026-04-26 14:22 48.74465 2.36416 33242 ft 415 kts 218°
2026-04-26 14:23 48.69631 2.31664 33244 ft 414 kts 218°
2026-04-26 14:23 48.64803 2.26928 33236 ft 414 kts 218°
2026-04-26 14:24 48.59969 2.22198 33226 ft 414 kts 217°
2026-04-26 14:24 48.54746 2.18388 33225 ft 424 kts 199°
2026-04-26 14:25 48.48940 2.16507 33204 ft 428 kts 195°
2026-04-26 14:25 48.43103 2.14735 33212 ft 428 kts 196°
2026-04-26 14:26 48.37273 2.12882 33211 ft 428 kts 196°
2026-04-26 14:26 48.31441 2.11007 33207 ft 429 kts 196°
2026-04-26 14:27 48.25462 2.10439 33198 ft 437 kts 176°
2026-04-26 14:27 48.19443 2.11847 33191 ft 438 kts 174°
2026-04-26 14:28 48.13417 2.13182 33211 ft 437 kts 176°
2026-04-26 14:28 48.07376 2.13742 33219 ft 435 kts 181°
2026-04-26 14:29 48.01320 2.13990 33208 ft 436 kts 181°
2026-04-26 14:29 47.95258 2.14270 33211 ft 436 kts 181°
2026-04-26 14:30 47.89185 2.14603 33211 ft 437 kts 180°
2026-04-26 14:30 47.83103 2.14955 33215 ft 438 kts 180°
2026-04-26 14:31 47.77013 2.15310 33179 ft 438 kts 180°
2026-04-26 14:31 47.70921 2.15663 33183 ft 438 kts 180°
2026-04-26 14:32 47.64820 2.16015 33184 ft 438 kts 180°
2026-04-26 14:32 47.58731 2.16365 33181 ft 438 kts 180°
2026-04-26 14:33 47.52633 2.16715 33179 ft 438 kts 180°
2026-04-26 14:33 47.46550 2.17063 33181 ft 438 kts 180°
2026-04-26 14:34 47.40461 2.17410 33181 ft 437 kts 180°
2026-04-26 14:34 47.34385 2.17756 33171 ft 437 kts 180°
2026-04-26 14:35 47.28340 2.18100 33182 ft 437 kts 180°
2026-04-26 14:35 47.22218 2.18447 33182 ft 438 kts 180°
2026-04-26 14:36 47.16124 2.18792 33177 ft 439 kts 180°
2026-04-26 14:36 47.10058 2.19259 33168 ft 441 kts 173°
2026-04-26 14:37 47.04137 2.21807 33182 ft 443 kts 158°
2026-04-26 14:37 46.98435 2.25289 33168 ft 444 kts 158°
2026-04-26 14:38 46.92716 2.28707 33173 ft 444 kts 159°
2026-04-26 14:38 46.86977 2.32063 33184 ft 444 kts 159°
2026-04-26 14:39 46.81443 2.36032 33176 ft 444 kts 147°
2026-04-26 14:39 46.76327 2.40975 33173 ft 444 kts 146°
2026-04-26 14:40 46.71190 2.45967 33181 ft 444 kts 146°
2026-04-26 14:40 46.65997 2.50939 33171 ft 444 kts 146°
2026-04-26 14:41 46.60870 2.55804 33166 ft 443 kts 146°
2026-04-26 14:41 46.55705 2.60685 33171 ft 443 kts 146°
2026-04-26 14:42 46.50544 2.65552 33165 ft 442 kts 146°
2026-04-26 14:42 46.45382 2.70410 33174 ft 442 kts 146°
2026-04-26 14:43 46.40231 2.75249 33167 ft 442 kts 146°
2026-04-26 14:43 46.35072 2.80083 33178 ft 442 kts 146°
2026-04-26 14:44 46.29911 2.84907 33185 ft 442 kts 146°
2026-04-26 14:44 46.24744 2.89726 33173 ft 442 kts 146°
2026-04-26 14:45 46.19582 2.94530 33172 ft 441 kts 146°
2026-04-26 14:45 46.14436 2.99309 33161 ft 441 kts 146°
2026-04-26 14:46 46.09267 3.04097 33166 ft 440 kts 146°
2026-04-26 14:46 46.04120 3.08858 33166 ft 439 kts 146°
2026-04-26 14:47 45.98941 3.13635 33161 ft 439 kts 146°
2026-04-26 14:47 45.93464 3.17312 33171 ft 440 kts 166°
2026-04-26 14:48 45.87391 3.18237 33164 ft 439 kts 181°
2026-04-26 14:48 45.81282 3.18046 33157 ft 439 kts 182°
2026-04-26 14:49 45.75169 3.17833 33160 ft 439 kts 181°
2026-04-26 14:49 45.69057 3.17655 33163 ft 439 kts 181°
2026-04-26 14:50 45.62951 3.17501 33159 ft 439 kts 181°
2026-04-26 14:50 45.56856 3.17354 33163 ft 437 kts 181°
2026-04-26 14:50 45.53823 3.17281 32975 ft 433 kts 181°
2026-04-26 14:51 45.50833 3.17209 32708 ft 426 kts 181°
2026-04-26 14:51 45.47888 3.17138 32329 ft 422 kts 181°
2026-04-26 14:51 45.45945 3.17091 32095 ft 419 kts 181°
2026-04-26 14:51 45.42062 3.16997 31606 ft 415 kts 181°
2026-04-26 14:52 45.39183 3.16927 31254 ft 413 kts 181°
2026-04-26 14:52 45.36319 3.16858 30888 ft 410 kts 181°
2026-04-26 14:52 45.33473 3.16790 30533 ft 408 kts 181°
2026-04-26 14:52 45.31595 3.16744 30296 ft 406 kts 181°
2026-04-26 14:53 45.28779 3.16677 29892 ft 404 kts 181°
2026-04-26 14:53 45.25979 3.16610 29499 ft 401 kts 181°
2026-04-26 14:53 45.23204 3.16543 29122 ft 397 kts 180°
2026-04-26 14:53 45.20455 3.16477 28763 ft 394 kts 180°
2026-04-26 14:54 45.16846 3.16390 28274 ft 389 kts 180°
2026-04-26 14:54 45.15019 3.16346 28029 ft 388 kts 180°
2026-04-26 14:54 45.12332 3.16282 27654 ft 385 kts 180°
2026-04-26 14:54 45.09657 3.16218 27294 ft 383 kts 180°
2026-04-26 14:55 45.07006 3.16154 26929 ft 380 kts 180°
2026-04-26 14:55 45.04365 3.16091 26581 ft 378 kts 180°
2026-04-26 14:55 45.01747 3.16029 26237 ft 376 kts 180°
2026-04-26 14:55 44.99165 3.15968 25894 ft 376 kts 180°
2026-04-26 14:56 44.96551 3.15905 25539 ft 376 kts 180°
2026-04-26 14:56 44.93935 3.15843 25194 ft 375 kts 180°
2026-04-26 14:56 44.91338 3.15781 24840 ft 373 kts 180°
2026-04-26 14:56 44.88742 3.15720 24491 ft 372 kts 180°
2026-04-26 14:57 44.86159 3.15659 24139 ft 371 kts 180°
2026-04-26 14:57 44.83553 3.15597 23782 ft 369 kts 180°
2026-04-26 14:57 44.81022 3.15537 23389 ft 368 kts 180°
2026-04-26 14:57 44.78471 3.15477 22986 ft 366 kts 180°
2026-04-26 14:58 44.75938 3.15417 22637 ft 363 kts 180°
2026-04-26 14:58 44.73416 3.15357 22270 ft 361 kts 180°
2026-04-26 14:58 44.70921 3.15299 21945 ft 357 kts 180°
2026-04-26 14:58 44.68412 3.15240 21586 ft 355 kts 180°
2026-04-26 14:59 44.65980 3.15183 21248 ft 353 kts 180°
2026-04-26 14:59 44.63537 3.15125 20904 ft 350 kts 181°
2026-04-26 14:59 44.61108 3.15069 20571 ft 348 kts 181°
2026-04-26 14:59 44.59476 3.15030 20339 ft 346 kts 181°
2026-04-26 15:00 44.56298 3.14955 19909 ft 343 kts 181°
2026-04-26 15:00 44.53914 3.14900 19578 ft 342 kts 181°
2026-04-26 15:00 44.51516 3.14843 19244 ft 340 kts 181°
2026-04-26 15:00 44.49158 3.14788 18910 ft 338 kts 181°
2026-04-26 15:01 44.46841 3.14734 18594 ft 336 kts 181°
2026-04-26 15:01 44.44509 3.14680 18248 ft 335 kts 181°
2026-04-26 15:01 44.42182 3.14625 17872 ft 334 kts 181°
2026-04-26 15:01 44.39867 3.14571 17537 ft 332 kts 181°
2026-04-26 15:02 44.37567 3.14517 17205 ft 329 kts 181°
2026-04-26 15:02 44.35284 3.14464 16872 ft 327 kts 181°
2026-04-26 15:02 44.33017 3.14411 16551 ft 325 kts 181°
2026-04-26 15:02 44.30767 3.14359 16238 ft 323 kts 181°
2026-04-26 15:03 44.28525 3.14306 15910 ft 321 kts 181°
2026-04-26 15:03 44.26298 3.14254 15606 ft 319 kts 181°
2026-04-26 15:03 44.24085 3.14203 15284 ft 317 kts 181°
2026-04-26 15:03 44.21884 3.14152 14971 ft 316 kts 181°
2026-04-26 15:04 44.19697 3.14102 14668 ft 314 kts 181°
2026-04-26 15:04 44.17523 3.14052 14365 ft 312 kts 182°
2026-04-26 15:04 44.15351 3.14001 14049 ft 311 kts 181°
2026-04-26 15:04 44.13201 3.13952 13722 ft 309 kts 182°
2026-04-26 15:05 44.11055 3.13902 13388 ft 307 kts 181°
2026-04-26 15:05 44.09643 3.13870 13173 ft 306 kts 181°
2026-04-26 15:05 44.06810 3.13804 12755 ft 303 kts 182°
2026-04-26 15:05 44.04705 3.13756 12455 ft 301 kts 181°
2026-04-26 15:06 44.02624 3.13708 12149 ft 299 kts 181°
2026-04-26 15:06 44.00547 3.13660 11849 ft 297 kts 181°
2026-04-26 15:06 43.98485 3.13613 11553 ft 296 kts 181°
2026-04-26 15:06 43.96429 3.13564 11246 ft 295 kts 182°
2026-04-26 15:07 43.92340 3.13473 10652 ft 293 kts 181°
2026-04-26 15:07 43.90303 3.13426 10349 ft 292 kts 181°
2026-04-26 15:07 43.88289 3.13380 10212 ft 286 kts 181°
2026-04-26 15:08 43.86313 3.13334 9954 ft 284 kts 181°
2026-04-26 15:08 43.84337 3.13289 9651 ft 284 kts 181°
2026-04-26 15:08 43.82369 3.13243 9340 ft 282 kts 181°
2026-04-26 15:08 43.80414 3.13198 9075 ft 281 kts 181°
2026-04-26 15:09 43.78459 3.13154 8774 ft 280 kts 182°
2026-04-26 15:09 43.76510 3.13110 8472 ft 279 kts 182°
2026-04-26 15:09 43.74575 3.13064 8240 ft 279 kts 182°
2026-04-26 15:09 43.72633 3.13018 7928 ft 280 kts 182°
2026-04-26 15:10 43.70690 3.12973 7654 ft 279 kts 182°
2026-04-26 15:10 43.69403 3.12945 7459 ft 279 kts 183°
2026-04-26 15:10 43.66801 3.12886 7079 ft 279 kts 182°
2026-04-26 15:10 43.64857 3.12842 6811 ft 279 kts 182°
2026-04-26 15:11 43.62916 3.12797 6531 ft 279 kts 182°
2026-04-26 15:11 43.60972 3.12753 6211 ft 279 kts 182°
2026-04-26 15:11 43.59043 3.12708 5938 ft 277 kts 181°
2026-04-26 15:11 43.57122 3.12668 5662 ft 276 kts 181°
2026-04-26 15:12 43.55202 3.12626 5320 ft 276 kts 182°
2026-04-26 15:12 43.53288 3.12585 5081 ft 272 kts 182°
2026-04-26 15:12 43.51421 3.12512 4976 ft 264 kts 182°
2026-04-26 15:12 43.49633 3.12477 4894 ft 249 kts 182°
2026-04-26 15:13 43.47947 3.12450 4797 ft 236 kts 182°
2026-04-26 15:13 43.46367 3.12423 4719 ft 225 kts 182°
2026-04-26 15:13 43.44829 3.12386 4548 ft 217 kts 182°
2026-04-26 15:13 43.43316 3.12354 4347 ft 211 kts 182°
2026-04-26 15:14 43.41870 3.12325 4140 ft 211 kts 182°
2026-04-26 15:14 43.40422 3.12261 3929 ft 206 kts 185°
2026-04-26 15:14 43.39012 3.12118 3728 ft 201 kts 186°
2026-04-26 15:14 43.37629 3.11973 3513 ft 198 kts 186°
2026-04-26 15:15 43.36258 3.11829 3320 ft 197 kts 186°
2026-04-26 15:15 43.34896 3.11817 3098 ft 196 kts 167°
2026-04-26 15:15 43.33836 3.12873 2899 ft 189 kts 121°
2026-04-26 15:15 43.33468 3.14562 2741 ft 185 kts 96°
2026-04-26 15:16 43.33390 3.16335 2542 ft 187 kts 94°
2026-04-26 15:16 43.33307 3.18098 2381 ft 185 kts 95°
2026-04-26 15:16 43.33216 3.19831 2152 ft 181 kts 96°
2026-04-26 15:16 43.33121 3.21516 1913 ft 172 kts 95°
2026-04-26 15:17 43.33033 3.23087 1676 ft 162 kts 97°
2026-04-26 15:17 43.32977 3.24108 1560 ft 160 kts 97°
2026-04-26 15:17 43.32858 3.26114 1313 ft 156 kts 97°
2026-04-26 15:17 43.32776 3.27591 1070 ft 154 kts 98°
2026-04-26 15:18 43.32693 3.29052 897 ft 153 kts 97°
2026-04-26 15:18 43.32614 3.30527 701 ft 157 kts 97°
2026-04-26 15:18 43.32544 3.32022 495 ft 155 kts 96°
2026-04-26 15:18 43.32444 3.33500 260 ft 157 kts 99°
2026-04-26 15:19 43.32367 3.34997 60 ft 153 kts 99°
2026-04-26 15:19 43.32297 3.36242 50 ft 75 kts 93°
2026-04-26 15:19 43.32281 3.36560 47 ft 15 kts 95°
2026-04-26 15:19 43.32261 3.36676 49 ft 6 kts 120°
2026-04-26 15:20 43.32259 3.36720 51 ft 6 kts 24°
2026-04-26 15:20 43.32274 3.36664 50 ft 9 kts 274°
2026-04-26 15:20 43.32279 3.36550 46 ft 14 kts 273°
2026-04-26 15:20 43.32287 3.36396 51 ft 18 kts 274°
2026-04-26 15:21 43.32296 3.36202 49 ft 23 kts 274°
2026-04-26 15:21 43.32306 3.35970 51 ft 24 kts 273°
2026-04-26 15:21 43.32315 3.35751 53 ft 23 kts 275°
2026-04-26 15:21 43.32328 3.35538 53 ft 22 kts 273°
2026-04-26 15:22 43.32331 3.35369 53 ft 13 kts 249°
2026-04-26 15:22 43.32250 3.35328 58 ft 13 kts 185°
2026-04-26 15:22 43.32183 3.35343 52 ft 7 kts 139°
2026-04-26 15:22 43.32170 3.35405 57 ft 7 kts 127°
2026-04-26 15:23 43.32150 3.35407 57 ft 1 kts 249°
2026-04-26 15:23 43.32151 3.35404 56 ft 0 kts 270°
2026-04-26 15:23 43.32151 3.35405 56 ft 0 kts 270°